Location: Ajisawe
(8.4333°N, 4.3833°E)
Time: 01:27:33
(UTC+00:00)

Courier 1B Rocket - Pass Details

Date: 26 April 2021
Orbit: 920 x 1202 km, 28.3° (Epoch: 13 May)

Event Time Altitude Azimuth Distance (km) Brightness Sun altitude
Rises 10:50:21 0° 204° (SSW) 3,764 8.0 76.7°
Reaches altitude 10° 10:55:10 10° 175° (S) 2,741 7.5 77.8°
Maximum altitude 10:57:35 12° 153° (SSE) 2,558 7.4 78.3°
Drops below altitude 10° 10:59:57 10° 131° (SE) 2,680 7.5 78.8°
Sets 11:04:30 0° 101° (E) 3,579 8.1 79.8°
